Location: PSU-Greenbush Astrophysical Observatory
(37.5140°N, 94.9880°W)
Time: 23:20:52
(UTC-06:00)

Altair - Pass Details

Date: 25 January 2020
Orbit: 1502 x 1682 km, 47.2° (Epoch: 17 February)

Event Time Altitude Azimuth Distance (km) Brightness Sun altitude
Rises 11:46:30 0° 282° (WNW) 4,921 9.9 32.5°
Reaches altitude 10° 11:49:52 10° 288° (WNW) 3,941 9.5 32.6°
Maximum altitude 11:59:38 49° 2° (N) 2,083 8.2 33.0°
Drops below altitude 10° 12:09:19 10° 75° (ENE) 3,905 9.6 33.3°
Sets 12:12:37 0° 81° (E) 4,873 10.1 33.3°
